Dewpoint
49 49 49 48 48 48 48 48 49 49 49 50 50 51 51 51 51 52 52 53 53 53 55 57 57 58 58 58 56 55 57 53 52 51 49 48 51 54 53 53 54 55 56 55 52 49 49 55 55 56 54 52 55 52 54 50 45 45 43 42 41 39 39 40 37 38 39 37 38 38 34 31 30 33 34 37 36 36 39 38 44 49 50 54 57 58 58 60
48 48 48 49 49 49 48 48 48 49 49 50 51 50 50 51 51 51 52 52 53 53 54 56 57 57 58 58 57 56 55 54 51 49 48 52 55 55 55 54 54 54 54 51 52 51 48 54 55 54 52 45 55 51 52 51 45 43 43 43 40 41 41 40 38 38 37 37 38 39 38 35 35 34 35 32 33 35 34 36 39 42 47 56 57 57 58 61
48 48 48 49 49 49 49 49 49 49 50 50 50 50 51 51 51 51 51 52 53 53 53 54 56 57 58 58 57 57 56 52 50 47 47 54 56 57 57 56 55 55 48 48 48 52 56 56 57 53 52 46 51 49 51 50 46 43 43 41 41 43 41 40 39 40 39 39 39 39 36 35 36 34 36 33 33 35 32 31 36 37 37 50 57 58 59 61
48 48 48 49 49 50 49 49 49 49 49 49 50 51 50 51 51 51 52 52 52 53 53 54 57 57 58 58 58 57 54 49 45 45 40 52 57 57 58 58 57 54 46 45 45 58 59 59 58 55 53 47 52 50 49 48 46 43 41 41 41 42 41 40 40 40 40 40 39 39 35 37 35 34 35 34 33 33 33 33 32 32 34 45 56 57 59 60
48 48 48 49 48 49 49 50 50 50 49 49 49 50 51 50 51 51 51 52 52 52 53 53 55 57 57 57 57 56 51 42 41 43 48 54 58 60 58 58 58 52 47 44 44 51 56 58 59 56 51 45 52 50 47 49 48 44 42 42 42 42 41 41 41 41 40 40 40 39 38 39 33 33 34 35 34 33 33 34 34 34 35 49 56 58 59 59
48 48 48 48 48 48 49 49 50 51 49 49 48 50 51 51 49 50 52 51 52 52 52 53 54 56 56 57 58 54 49 35 42 46 54 55 59 60 60 59 58 51 48 48 40 37 50 56 57 53 49 47 49 46 47 48 47 42 43 42 42 42 41 42 41 42 41 40 39 39 40 36 35 37 34 35 36 36 34 33 36 36 38 45 55 58 58 59
48 48 47 47 48 48 49 50 50 49 50 49 49 49 48 51 51 49 50 50 50 51 52 52 53 55 56 57 56 53 48 43 46 50 55 53 57 61 59 59 57 52 49 47 43 37 48 54 55 50 49 47 48 45 49 48 46 44 39 43 43 42 42 42 41 42 41 40 40 40 39 39 37 38 35 33 35 37 34 33 35 36 37 53 55 57 57 58
47 47 47 48 49 48 49 50 50 50 51 50 50 50 48 48 50 51 49 50 50 51 51 52 53 55 56 56 51 48 47 46 45 54 54 52 48 57 56 54 53 52 49 45 44 42 49 53 52 50 49 45 49 48 50 49 47 45 43 44 43 43 43 42 41 41 41 41 40 40 39 39 39 39 37 36 37 38 34 33 33 44 44 51 51 56 57 58
48 48 49 48 48 48 48 49 49 50 49 49 49 49 49 49 48 50 50 49 50 50 51 51 52 55 54 54 48 46 45 49 47 50 55 47 44 47 55 53 53 51 49 46 46 43 52 51 52 52 46 47 50 46 51 47 46 47 45 44 43 43 43 43 42 42 41 41 41 40 39 40 39 38 38 40 40 40 37 37 45 49 47 50 51 53 55 57
48 48 49 49 48 47 48 48 49 48 48 49 49 49 49 50 49 48 49 49 49 49 50 51 52 55 53 51 49 42 49 53 50 46 46 46 46 45 48 53 52 50 49 49 50 52 51 50 51 53 55 50 50 45 51 47 43 48 47 46 44 44 43 44 42 43 41 41 41 40 40 40 41 40 39 41 41 41 38 38 51 47 44 48 50 53 54 55
48 48 48 49 49 49 48 48 48 48 48 49 49 48 48 48 49 49 48 48 49 49 49 50 52 54 52 50 45 41 51 51 49 47 47 46 44 44 44 54 52 50 47 48 47 49 52 53 54 56 54 49 51 50 50 50 48 48 47 47 47 46 45 44 43 42 42 41 41 41 40 41 41 40 40 41 41 40 39 39 44 46 43 45 49 51 55 55
47 49 49 49 49 49 48 47 48 48 49 48 48 48 47 47 50 49 49 50 49 49 48 49 51 51 51 49 45 44 51 47 47 45 48 46 44 44 45 53 53 51 48 46 46 48 52 57 59 55 45 51 47 49 49 50 48 48 48 45 46 47 47 46 46 45 43 42 41 41 40 40 39 39 41 42 40 39 39 39 40 44 44 45 49 52 53 54
48 47 47 49 49 49 48 48 47 48 48 49 47 48 47 47 48 49 49 50 49 49 47 49 49 54 48 42 44 49 50 47 49 49 48 47 47 47 45 53 54 52 49 45 44 46 50 54 58 53 54 49 48 42 49 50 49 49 48 44 43 42 41 44 46 46 43 44 42 42 37 38 40 41 41 42 42 39 38 38 39 41 43 44 48 50 52 54
47 48 48 48 49 49 48 47 47 47 47 48 48 48 49 48 48 49 49 48 48 50 50 48 51 52 47 43 47 52 53 49 50 48 47 48 46 51 48 51 55 55 54 49 51 46 48 51 56 55 56 51 48 50 47 49 49 46 47 46 42 40 39 42 45 45 44 43 42 43 37 33 35 39 42 43 42 40 40 40 40 39 40 42 46 48 49 52
48 48 47 48 48 48 48 47 47 47 48 48 49 49 48 48 48 49 49 49 49 49 49 51 50 48 42 41 49 53 55 49 47 47 49 46 45 49 50 50 53 55 55 52 51 54 50 52 56 54 51 54 52 48 46 46 48 48 45 42 43 40 39 44 45 44 41 43 43 42 39 35 34 39 41 42 42 41 41 41 41 40 40 40 41 44 45 46
47 47 47 48 48 47 47 47 47 47 47 48 49 48 48 49 48 49 50 50 50 50 52 48 48 46 41 37 42 54 49 46 45 47 49 49 47 46 51 51 53 54 54 52 56 56 52 52 53 53 50 51 50 45 43 45 44 47 41 37 39 40 39 40 44 44 41 43 43 42 36 36 36 39 39 41 41 41 41 41 41 41 41 41 40 41 42 45
47 48 48 48 47 48 47 48 47 47 48 47 48 48 49 49 49 49 49 50 50 51 50 43 45 46 35 46 50 46 47 48 48 48 49 48 49 53 52 51 51 52 53 54 56 54 52 51 53 52 53 48 44 43 37 35 35 38 42 36 37 37 39 38 43 44 44 41 41 42 39 36 35 39 40 40 41 41 40 40 41 41 41 41 42 41 41 42
47 47 49 49 48 48 48 48 47 47 47 47 48 47 48 48 49 49 48 48 49 48 48 50 48 42 39 43 39 42 47 48 47 47 49 46 54 54 51 49 51 51 51 49 53 46 52 46 49 41 45 46 44 45 34 27 30 32 36 37 35 38 38 37 38 42 44 44 41 41 41 39 38 37 39 41 42 41 40 40 39 39 40 41 41 41 40 41
47 46 48 48 48 49 48 47 47 47 47 48 48 49 49 49 49 49 48 47 42 39 37 39 39 30 27 37 42 46 47 49 49 47 47 53 54 55 55 54 51 48 45 42 47 43 46 43 46 42 37 41 41 38 34 31 32 31 34 35 34 34 36 37 39 42 43 43 41 40 40 40 40 39 39 38 41 41 40 41 41 40 40 40 40 41 41 42
47 47 48 49 48 48 48 48 47 47 48 48 48 47 46 40 40 41 43 44 39 37 36 36 41 39 41 42 44 45 51 52 46 46 47 52 53 51 50 51 49 48 45 37 44 40 45 36 35 36 35 35 40 39 37 34 36 34 35 35 35 34 33 39 41 41 44 42 41 41 40 40 40 40 40 40 40 41 41 40 41 41 41 41 41 40 41 41
47 47 46 48 48 48 48 48 47 48 49 48 47 43 36 34 32 29 37 39 40 40 39 40 41 39 38 46 46 46 44 45 47 46 46 51 49 47 44 44 46 40 43 40 41 43 42 34 33 32 34 33 37 40 39 36 38 34 29 32 30 34 31 36 41 42 43 40 39 41 40 40 40 40 40 40 40 40 41 41 41 40 40 41 42 43 43 42
47 47 46 47 47 48 48 47 46 48 49 47 45 40 40 38 42 43 38 35 39 41 41 40 42 41 44 43 46 47 44 42 44 46 49 48 45 42 43 43 40 39 41 41 42 42 37 33 32 34 33 30 34 38 39 37 37 38 34 32 28 30 31 41 40 42 41 41 39 39 40 39 40 40 42 41 41 41 41 42 42 42 42 42 42 43 43 44
47 47 46 47 47 47 48 47 47 49 48 46 42 41 39 42 45 45 41 36 35 40 41 40 39 39 40 43 45 45 41 39 40 44 46 47 43 41 43 42 40 38 40 42 37 35 33 33 34 34 34 34 38 42 39 38 38 35 36 37 33 34 34 33 38 41 41 40 38 40 39 37 38 39 41 42 41 42 43 43 43 43 42 42 42 42 43 43
48 46 47 47 47 47 48 48 48 48 46 44 43 41 45 47 44 42 38 31 31 37 40 40 40 39 38 38 43 43 40 38 40 42 47 45 42 42 41 41 38 37 37 40 37 34 32 33 36 35 36 35 34 37 39 39 38 38 37 35 33 35 36 32 36 39 41 41 41 39 38 36 36 37 37 40 40 40 41 42 42 43 44 44 45 46 45 42
47 46 46 47 47 48 47 48 46 44 46 45 43 44 47 47 46 45 37 33 31 31 41 40 42 41 39 44 46 41 42 41 41 44 47 44 43 42 41 42 40 38 36 38 37 36 34 36 38 36 36 35 34 35 37 38 35 34 37 36 34 34 37 38 40 39 38 38 40 40 35 31 32 34 36 38 39 39 40 41 41 42 43 44 43 44 45 47
46 46 46 46 46 48 48 45 43 46 44 42 43 45 47 46 45 45 37 27 20 28 37 32 40 34 41 40 41 39 40 38 41 43 47 46 45 42 41 40 41 36 36 36 36 36 33 36 35 34 34 34 35 33 35 35 32 30 30 37 37 34 36 36 40 39 32 31 33 40 33 26 26 29 35 37 36 37 37 40 40 40 41 42 43 43 43 44
45 46 46 46 46 47 44 41 46 45 40 40 44 46 46 45 46 43 31 22 17 31 30 34 32 33 38 39 39 36 24 27 41 47 45 47 44 46 37 38 39 38 39 39 37 34 37 35 35 34 34 34 33 31 33 34 32 30 35 37 38 37 35 36 36 35 30 38 40 41 37 31 28 28 30 33 34 35 35 35 39 39 39 41 41 42 43 43
45 46 46 46 46 46 44 46 44 41 39 42 45 46 46 44 43 41 28 11 10 32 28 35 34 41 35 41 38 29 28 38 35 41 45 46 45 44 40 38 37 36 38 38 29 34 34 34 35 34 34 33 31 30 32 35 34 32 38 37 36 36 35 37 37 35 33 34 31 37 38 32 28 29 29 29 29 27 29 30 31 35 39 38 40 41 42 43
45 45 45 45 46 46 46 46 44 41 44 47 46 44 45 43 40 30 19 8 28 27 41 32 41 36 38 40 35 30 28 39 28 38 44 46 46 43 38 39 40 37 39 38 32 34 35 33 34 34 34 32 34 32 32 36 33 36 39 38 35 38 39 38 37 33 36 34 28 29 35 29 24 24 28 29 28 26 28 29 28 30 30 38 39 40 40 41
44 44 45 46 45 45 46 46 44 46 46 45 45 44 43 40 30 18 14 8 30 16 35 35 34 31 38 36 34 32 27 33 39 43 43 42 43 45 42 44 39 40 38 38 37 36 37 41 42 36 36 34 33 33 35 36 36 43 42 39 40 39 37 37 36 36 34 28 30 28 28 30 24 23 25 29 28 25 24 29 31 30 34 38 40 41 42 41
44 44 44 45 44 44 44 40 41 47 46 44 44 42 40 34 20 13 7 11 19 22 33 33 31 35 35 33 30 33 29 32 37 41 39 41 39 42 43 39 42 39 37 36 36 36 36 39 38 40 39 36 35 35 37 38 41 38 37 37 36 36 37 36 36 34 28 25 28 28 27 29 25 23 23 24 25 28 25 26 31 34 35 38 40 40 40 40
43 43 44 42 43 46 41 39 44 46 44 45 45 41 34 20 20 11 9 22 7 16 25 28 32 35 33 32 31 31 28 31 37 38 37 37 36 36 37 31 35 28 29 31 30 37 34 35 39 40 43 36 38 34 40 40 40 34 34 36 25 25 29 25 30 25 26 21 23 27 28 29 27 24 23 26 18 26 24 24 30 32 34 38 40 41 42 43
42 43 44 43 44 44 44 45 46 44 44 43 41 38 23 16 11 15 13 11 5 23 22 33 31 34 33 31 30 32 31 27 36 37 37 37 36 37 37 34 36 31 25 31 30 32 32 35 38 38 40 41 38 32 36 33 39 33 35 31 24 20 22 20 23 28 25 29 31 27 28 25 24 24 27 25 24 27 30 31 32 32 31 36 39 41 41 44
41 42 40 42 44 46 46 47 46 45 42 41 39 26 19 12 11 19 15 15 12 25 30 28 31 33 32 28 29 31 29 30 34 34 34 33 34 31 35 37 37 34 32 33 29 28 25 28 33 37 34 41 39 34 35 35 37 35 34 32 27 23 21 19 20 21 22 23 26 32 29 27 23 20 29 25 26 26 27 27 33 34 35 38 39 40 41 41
42 41 42 43 46 47 46 46 46 45 42 40 31 22 15 12 13 15 15 16 21 26 28 28 28 28 28 30 31 32 29 27 33 33 33 30 29 32 31 35 36 37 32 28 29 30 28 27 33 35 36 39 37 36 35 36 37 36 34 33 32 26 25 20 21 21 23 24 25 31 27 28 21 22 34 32 30 29 29 29 29 31 32 35 36 37 38 39
41 40 42 43 44 46 46 46 46 44 42 35 29 22 17 16 12 14 14 23 25 21 25 28 28 23 27 28 31 30 32 28 31 31 30 30 29 29 32 34 35 36 32 27 31 27 28 25 34 35 36 38 37 37 36 35 27 33 36 32 31 32 26 24 26 28 28 22 20 27 28 28 29 27 27 29 32 31 30 30 31 32 32 33 34 36 35 37
38 38 39 43 43 47 46 46 46 43 41 34 26 20 21 20 19 21 29 21 23 21 21 10 15 17 16 18 26 29 30 31 31 29 24 32 27 30 30 32 37 37 36 32 28 31 25 26 33 34 32 35 37 37 37 35 33 33 33 34 39 38 36 29 20 21 22 19 20 21 23 24 25 23 23 22 28 31 32 32 32 34 35 35 36 38 38 38
37 37 38 41 43 46 46 45 45 42 38 31 24 24 22 20 28 26 31 27 25 24 18 16 13 23 19 16 19 27 30 27 26 29 25 29 24 30 29 28 34 36 36 37 29 30 31 25 28 32 32 34 38 38 38 40 39 32 31 37 34 28 28 30 26 19 16 17 18 16 16 21 22 22 22 24 20 25 30 32 32 33 35 37 37 38 38 39
37 37 36 40 45 46 45 45 43 39 33 26 24 23 27 22 31 29 31 30 29 24 20 22 16 21 25 22 24 29 30 26 27 27 24 27 24 30 27 28 29 35 36 37 34 33 32 24 26 33 33 37 37 35 29 34 39 39 40 35 35 25 29 27 27 24 19 16 17 17 17 16 24 21 22 19 23 24 25 29 29 31 33 35 38 39 40 41
35 34 32 43 45 45 45 43 40 35 30 24 24 23 27 22 26 32 34 32 27 25 22 20 23 17 27 25 28 21 27 29 28 27 27 30 26 32 28 28 27 34 35 37 35 36 29 29 21 29 34 36 31 34 29 30 31 34 32 31 34 30 32 29 27 25 21 17 16 15 14 14 17 17 21 21 19 22 28 29 31 31 33 35 37 39 41 41
35 33 33 44 45 46 45 41 33 30 28 28 29 26 24 23 29 29 33 34 32 32 28 27 24 20 22 26 26 29 27 27 25 26 26 29 28 23 31 29 29 28 34 35 35 32 28 28 24 28 28 29 30 34 31 30 32 32 30 28 30 28 26 22 21 28 26 23 19 17 15 19 20 22 19 18 20 22 26 26 29 33 33 34 37 38 39 41
33 27 29 43 45 44 40 31 30 30 29 26 24 27 26 32 25 28 30 32 31 28 31 31 30 27 25 25 24 28 27 27 28 28 28 23 31 27 34 35 31 27 31 31 32 33 31 33 27 25 27 29 30 35 35 37 35 33 31 29 30 28 26 23 17 20 25 25 27 23 18 16 23 26 21 17 17 18 23 26 26 31 33 33 34 36 37 38
32 29 35 40 44 42 36 29 31 30 28 29 31 30 32 30 29 30 29 30 28 31 30 28 28 27 27 26 27 27 28 25 26 26 28 30 30 33 34 33 35 33 33 31 34 34 34 29 26 26 29 31 33 34 36 35 36 35 34 33 29 28 28 24 20 18 19 22 22 22 20 21 26 33 27 25 30 31 32 29 28 28 28 30 32 36 35 36
32 32 34 42 44 43 33 25 24 27 27 29 29 28 31 29 30 26 27 29 28 27 28 27 28 30 25 30 29 25 29 23 26 25 23 30 26 33 33 30 32 31 33 30 29 33 28 28 27 23 24 25 28 31 29 31 33 32 32 33 31 30 29 29 27 29 18 19 21 18 15 18 23 24 31 31 32 30 28 30 30 29 31 35 33 35 37 38
32 34 33 35 42 41 30 30 27 25 26 26 28 27 28 29 31 30 27 27 31 30 30 26 27 29 29 30 28 28 29 25 21 28 28 29 27 35 33 30 32 30 34 35 36 37 28 26 26 21 17 16 16 18 21 26 30 32 33 32 33 31 29 27 26 25 22 22 19 18 18 17 18 25 23 25 28 29 30 29 31 34 35 33 37 37 37 38
30 24 28 29 35 37 35 35 32 28 26 26 25 26 27 26 29 31 31 30 30 31 29 29 30 31 28 29 24 22 25 28 25 24 28 28 30 34 33 34 34 33 35 35 36 33 30 29 27 25 20 18 18 22 28 30 31 29 31 32 33 32 29 29 26 24 21 23 20 19 18 17 16 17 20 23 24 23 22 30 31 32 32 35 36 38 38 38
32 27 27 25 27 32 31 33 31 30 28 28 24 26 25 26 27 26 28 25 29 29 29 30 28 25 25 27 25 23 25 24 27 26 28 28 29 34 33 34 35 35 35 35 36 35 31 27 28 28 26 23 22 23 27 30 29 30 29 30 32 33 33 30 27 24 25 23 19 23 22 21 17 18 18 18 22 24 26 24 29 31 33 35 36 36 35 33
27 29 29 31 25 23 24 25 31 30 31 29 26 28 25 25 25 23 28 29 31 26 25 26 29 28 26 25 25 23 23 23 25 25 28 28 28 29 29 33 32 35 36 35 38 34 29 26 28 28 27 27 25 23 27 30 29 31 30 30 31 32 32 31 30 29 27 23 21 23 23 22 21 19 18 18 19 19 20 24 29 29 30 33 33 31 31 31
30 27 29 31 25 26 27 28 28 28 27 29 28 28 26 26 25 25 24 26 29 29 27 22 24 27 27 27 26 23 23 19 22 25 25 26 28 27 26 29 34 35 35 34 34 32 31 28 29 30 28 26 26 26 26 25 28 29 30 31 30 32 32 32 32 31 30 28 27 25 24 24 24 21 21 22 23 23 22 26 30 30 30 31 31 30 30 30
23 24 23 27 27 25 26 26 26 27 26 28 26 28 27 26 25 26 28 26 23 26 30 26 25 26 27 28 27 24 24 24 22 21 26 27 26 27 26 26 27 34 34 32 33 32 28 23 27 28 26 27 28 27 26 25 25 25 28 30 31 30 31 31 32 31 33 31 31 29 29 28 27 25 25 26 27 28 27 25 27 29 30 30 30 30 30 30
28 30 29 25 22 22 26 27 27 27 26 26 26 28 28 27 26 27 26 28 26 24 29 27 27 27 27 27 28 27 28 27 26 24 24 27 23 28 25 27 26 29 33 32 32 31 30 26 29 28 24 24 27 27 25 25 24 25 25 26 29 30 29 30 30 31 31 31 31 32 30 28 28 29 28 28 27 27 27 27 27 28 29 29 29 29 30 31
31 31 32 28 22 24 23 25 24 25 24 26 27 27 27 26 27 28 26 28 28 28 27 28 29 27 26 27 26 26 28 28 28 28 28 27 27 28 27 26 28 24 31 31 34 29 27 26 26 24 21 22 24 26 25 26 25 23 23 25 26 29 30 31 30 31 31 31 31 29 29 30 29 30 29 29 28 28 27 26 27 28 29 28 29 29 29 29